Flag for U.S.A. Weather past 2 weeks in Mansfield, Texas, U.S.A.

Now
73 °F

Sunny.


Feels Like: 77 °F
Forecast: 60 / 81 °F
Wind: 7 mph from Southeast

Location: Burleson-Rendon

Current Time: Oct 21, 2014 at 7:26:28 PM

Latest Report: Oct 21, 2014 at 6:50 PM


Visibility: 10 mi

Pressure: 30.04 "Hg

Humidity: 50%

Dew point: 54 °F

Location of MansfieldLocation

Historic Weather in Mansfield — Graph

°F

Mansfield temperature yesterday

Maximum temperature yesterday: 82 °F (at 2:47 PM)
Minimum temperature yesterday: 55 °F (at 7:50 AM)
Average temperature yesterday: 66 °F

Past Weeks' High & Low Weather Summary

 TemperatureHumidityPressure
High99 °F (Oct 7, 3:46 PM)100% (Oct 12, 6:50 AM)30.18 "Hg (Oct 12, 6:50 AM)
Low45 °F (Oct 15, 6:55 AM)17% (Oct 16, 2:53 PM)29.61 "Hg (Oct 13, 1:35 AM)
Average68 °F69%29.97 "Hg
* Reported Oct 6 5:50 PM — Oct 21 5:55 PM, Mansfield, Weather by CustomWeather, © 2014

Note: Actual official high and low records may vary slightly from our data, if they occured in-between our weather recording intervals... More about our weather records

Advertising

Mansfield weather history for previous 24 hours

 ConditionsComfort  
Time TempWeatherWind HumidityBarometerVisibility
5:55 PM
Oct 21
81 °FSunny.7 mph34%30.03 "Hg10 mi
4:55 PM82 °FSunny.6 mph30%30.04 "Hg10 mi
3:47 PM82 °FSunny.12 mph30%30.04 "Hg10 mi
2:53 PM82 °FSunny.7 mph35%30.05 "Hg10 mi
1:57 PM81 °FSunny.9 mph37%30.07 "Hg10 mi
12:48 PM79 °FSunny.No wind45%30.10 "Hg10 mi
11:46 AM75 °FSunny.No wind54%30.12 "Hg10 mi
10:47 AM72 °FSunny.No wind69%30.13 "Hg7 mi
9:50 AM66 °FSunny.No wind83%30.13 "Hg7 mi
8:49 AM57 °FSunny.No wind100%30.12 "Hg7 mi
7:51 AM54 °FClear.No wind94%30.10 "Hg7 mi
6:52 AM54 °FClear.No wind100%30.09 "Hg10 mi
6:35 AM53 °FFog.No wind96%30.08 "Hg3 mi
6:15 AM54 °FFog.No wind96%30.08 "Hg5 mi
5:55 AM54 °FFog.No wind96%30.08 "Hg5 mi
5:35 AM54 °FFog.No wind95%30.08 "Hg2 mi
5:15 AM56 °FFog.No wind95%30.07 "Hg4 mi
4:55 AM56 °FFog.No wind95%30.07 "Hg2 mi
4:35 AM55 °FFog.No wind96%30.06 "Hg3 mi
4:15 AM56 °FFog.No wind95%30.06 "Hg5 mi
3:55 AM56 °FFog.No wind95%30.06 "Hg5 mi
3:35 AM56 °FClear.No wind96%30.05 "Hg7 mi
3:15 AM56 °FFog.No wind95%30.06 "Hg4 mi
2:55 AM56 °FFog.No wind95%30.06 "Hg3 mi
2:35 AM56 °FFog.No wind93%30.06 "Hg5 mi
2:15 AM57 °FClear.No wind94%30.06 "Hg7 mi
1:55 AM58 °FClear.No wind92%30.06 "Hg7 mi
1:35 AM58 °FClear.No wind92%30.06 "Hg7 mi
1:15 AM61 °FClear.No wind89%30.06 "Hg10 mi
12:55 AM61 °FClear.No wind89%30.06 "Hg10 mi
12:35 AM63 °FClear.No wind84%30.06 "Hg10 mi
12:15 AM63 °FClear.No wind84%30.07 "Hg10 mi
11:55 PM
Oct 20
65 °FClear.No wind79%30.07 "Hg10 mi
11:35 PM64 °FClear.No wind80%30.07 "Hg10 mi
11:15 PM64 °FClear.No wind80%30.07 "Hg10 mi
10:55 PM64 °FClear.No wind79%30.07 "Hg10 mi
10:15 PM65 °FClear.No wind77%30.07 "Hg10 mi
9:55 PM66 °FClear.5 mph76%30.07 "Hg10 mi
9:35 PM66 °FClear.3 mph76%30.06 "Hg10 mi
9:15 PM66 °FClear.3 mph75%30.06 "Hg10 mi
8:55 PM66 °FClear.3 mph74%30.05 "Hg10 mi
8:35 PM68 °FClear.No wind70%30.05 "Hg10 mi
8:15 PM70 °FClear.No wind67%30.04 "Hg10 mi
7:55 PM70 °FClear.3 mph66%30.04 "Hg10 mi
7:35 PM70 °FSunny.No wind66%30.03 "Hg10 mi
7:15 PM73 °FSunny.3 mph59%30.03 "Hg10 mi
Weather by CustomWeather, © 2014

See weather overviewHow to use our weather pages